EW1476 Weather Reports


Display with metric or nautical units.
time (UTC)temp
F
wind
direction
speed
MPH
gust
MPH
rain 1hr
in
rain 24hr
in
rain mn
in
humidity
%
barometer
mb
20260507193018 62 307 1.0 2.0 0.00 0.20 0.17 41 1009.3
20260507191515 61 321 1.0 4.0 0.00 0.20 0.17 38 1009.5
20260507190012 62 330 2.0 4.0 0.00 0.20 0.17 42 1009.6
20260507184506 61 96 0.0 0.0 0.00 0.20 0.17 45 1009.7
20260507183011 60 219 0.0 1.0 0.00 0.20 0.17 47 1009.9
20260507181520 60 226 0.0 0.0 0.00 0.20 0.17 42 1010.1
20260507180022 60 320 0.0 0.0 0.00 0.20 0.17 44 1010.3
20260507174522 60 323 0.0 0.0 0.00 0.20 0.17 42 1010.8
20260507173015 59 89 0.0 1.0 0.00 0.20 0.17 50 1011.0
20260507171509 59 4 0.0 0.0 0.00 0.20 0.17 46 1011.1
20260507170025 58 332 0.0 2.0 0.00 0.20 0.17 46 1011.1
20260507164522 58 283 1.0 3.0 0.00 0.20 0.17 44 1011.5
20260507163020 57 316 1.0 2.0 0.00 0.20 0.17 47 1011.6
20260507161515 57 356 0.0 4.0 0.00 0.20 0.17 46 1011.8
20260507160015 56 285 1.0 5.0 0.00 0.20 0.17 46 1011.9
20260507154510 56 323 0.0 2.0 0.00 0.20 0.17 55 1012.2
20260507153024 55 316 1.0 3.0 0.00 0.21 0.17 50 1012.3
20260507151522 54 112 0.0 0.0 0.00 0.21 0.17 51 1012.5
20260507150034 53 306 0.0 0.0 0.00 0.21 0.17 54 1012.6
20260507144521 52 325 0.0 0.0 0.00 0.22 0.17 56 1013.0
20260507143015 51 324 0.0 0.0 0.00 0.26 0.17 60 1013.0
20260507141545 51 324 0.0 0.0 0.00 0.27 0.17 62 1013.2
20260507140024 51 329 0.0 0.0 0.00 0.28 0.17 63 1013.2
20260507134524 51 319 0.0 0.0 0.00 0.30 0.17 68 1013.3
20260507133004 51 318 0.0 0.0 0.00 0.31 0.17 66 1013.5
20260507131503 51 319 0.0 0.0 0.00 0.33 0.17 70 1013.5
20260507130018 50 319 0.0 0.0 0.00 0.35 0.17 71 1013.5
20260507124513 50 320 0.0 0.0 0.00 0.36 0.17 75 1013.4
20260507123012 50 320 0.0 0.0 0.00 0.38 0.17 78 1013.4
20260507121508 49 320 0.0 0.0 0.00 0.41 0.17 83 1013.3
20260507120005 49 320 0.0 0.0 0.00 0.41 0.17 86 1013.2
20260507114524 49 320 0.0 0.0 0.00 0.41 0.17 84 1013.1
20260507113023 49 320 0.0 0.0 0.00 0.41 0.17 82 1013.2
20260507111518 49 320 0.0 0.0 0.00 0.41 0.17 79 1013.1
20260507110018 49 320 0.0 0.0 0.00 0.41 0.17 83 1012.9
20260507104511 50 320 0.0 0.0 0.00 0.41 0.17 90 1012.8
20260507103008 50 320 0.0 0.0 0.00 0.41 0.17 90 1012.6
20260507101533 50 320 0.0 0.0 0.00 0.41 0.17 90 1012.5
20260507100023 50 320 0.0 0.0 0.00 0.41 0.17 89 1012.2
20260507094521 50 320 0.0 0.0 0.00 0.41 0.17 90 1012.2
20260507093016 50 320 0.0 0.0 0.00 0.41 0.17 91 1012.2
20260507091518 51 320 0.0 0.0 0.00 0.41 0.17 91 1012.3
20260507090026 50 320 0.0 0.0 0.00 0.41 0.17 90 1012.2
20260507084527 51 320 0.0 0.0 0.00 0.41 0.17 91 1012.0
20260507083022 51 320 0.0 0.0 0.00 0.41 0.17 90 1011.8
20260507081523 51 320 0.0 0.0 0.01 0.41 0.17 90 1011.4
20260507080018 51 320 0.0 0.0 0.01 0.41 0.17 91 1011.4
20260507074515 51 313 0.0 0.0 0.01 0.41 0.17 91 1011.3
20260507073028 51 313 0.0 0.0 0.03 0.41 0.17 91 1011.2
20260507071526 51 313 0.0 0.0 0.05 0.40 0.16 91 1011.2
20260507070039 52 311 0.0 0.0 0.05 0.40 0.16 91 1011.4
20260507064505 52 311 0.0 0.0 0.05 0.40 0.16 90 1011.7
20260507063004 52 311 0.0 0.0 0.03 0.38 0.14 90 1011.4
20260507061509 53 311 0.0 0.0 0.00 0.35 0.11 90 1011.6
20260507060013 53 311 0.0 0.0 0.00 0.35 0.11 91 1011.8
20260507054510 53 311 0.0 0.0 0.00 0.35 0.11 90 1011.5
20260507053009 54 311 0.0 0.0 0.07 0.35 0.11 91 1011.5
20260507051503 54 311 0.0 0.0 0.09 0.35 0.11 91 1011.5
20260507050020 54 311 0.0 0.0 0.11 0.35 0.11 91 1011.4
20260507044511 54 311 0.0 0.0 0.12 0.35 0.11 91 1011.7
20260507043012 55 311 0.0 0.0 0.07 0.28 0.04 91 1011.9
20260507041512 55 314 0.0 0.0 0.05 0.26 0.02 89 1011.2
20260507040011 56 315 0.0 2.0 0.03 0.24 0.00 88 1011.5
20260507034507 57 316 0.0 1.0 0.02 0.23 0.23 86 1011.1
20260507033013 58 307 0.0 0.0 0.00 0.21 0.21 81 1011.3
20260507031516 58 314 0.0 1.0 0.00 0.21 0.21 80 1010.9
20260507030015 59 313 1.0 2.0 0.00 0.21 0.21 80 1010.8
20260507024521 59 315 1.0 4.0 0.00 0.21 0.21 79 1010.7
20260507023010 60 319 1.0 2.0 0.00 0.21 0.21 82 1010.7
20260507021518 60 309 2.0 3.0 0.00 0.21 0.21 83 1010.7
20260507020023 61 316 0.0 2.0 0.00 0.21 0.21 83 1010.6
20260507014521 61 318 2.0 4.0 0.00 0.21 0.21 83 1010.5
20260507013025 62 308 0.0 1.0 0.00 0.21 0.21 88 1010.3
20260507011529 62 307 2.0 3.0 0.00 0.21 0.21 87 1010.7
20260507010019 63 308 1.0 2.0 0.00 0.21 0.21 87 1010.6
20260507004523 63 326 1.0 3.0 0.00 0.21 0.21 87 1010.1
20260507003022 63 313 1.0 2.0 0.00 0.21 0.21 86 1010.3
20260507001506 64 326 3.0 4.0 0.00 0.21 0.21 86 1010.1
20260507000004 65 276 1.0 2.0 0.00 0.21 0.21 87 1009.8
20260506234520 65 257 0.0 0.0 0.00 0.21 0.21 85 1009.3
20260506233015 66 257 0.0 0.0 0.00 0.21 0.21 84 1009.0
20260506231511 66 257 0.0 0.0 0.00 0.21 0.21 83 1009.0
20260506230008 66 257 0.0 0.0 0.00 0.21 0.21 84 1008.9
20260506224505 66 257 0.0 0.0 0.00 0.21 0.21 83 1009.0
20260506223004 66 257 0.0 0.0 0.00 0.21 0.21 84 1008.8
20260506221522 66 257 0.0 0.0 0.00 0.21 0.21 84 1008.9
20260506220018 66 257 0.0 0.0 0.00 0.21 0.21 83 1009.1
20260506214516 66 257 0.0 0.0 0.00 0.21 0.21 82 1008.9
20260506213014 67 257 0.0 2.0 0.00 0.21 0.21 80 1008.7
20260506211512 66 233 0.0 1.0 0.00 0.21 0.21 80 1008.5
20260506210009 67 217 0.0 1.0 0.00 0.21 0.21 79 1008.5
20260506204522 67 210 1.0 1.0 0.00 0.21 0.21 79 1008.2
20260506203023 67 200 0.0 2.0 0.00 0.21 0.21 79 1008.2
20260506201519 67 288 0.0 0.0 0.00 0.21 0.21 80 1008.5
20260506200014 67 228 0.0 2.0 0.00 0.21 0.21 80 1008.4
20260506194509 67 269 0.0 3.0 0.00 0.21 0.21 80 1008.3